Location: Sweet Grass
(48.9965°N, 111.9649°W)
Time: 18:18:56
(UTC+00:00)

DX 1 - Pass Details

Date: 05 April 2023
Orbit: 615 x 625 km, 98.4° (Epoch: 04 June)

Event Time Altitude Azimuth Distance (km) Brightness Sun altitude
Rises 06:26:17 0° 9° (N) 2,899 ? -33.2°
Reaches altitude 10° 06:28:31 10° 4° (N) 1,989 ? -33.4°
Enters shadow 06:30:23 24° 353° (N) 1,287 ? -33.4°
